N3SBK Weather Reports


time (UTC)temp
C
wind
direction
speed
KPH
gust
KPH
rain 1hr
cm
rain 24hr
cm
rain mn
cm
humidity
%
barometer
mb
20260507185508 15 348 3.2 3.2 0.00 0.00 0.00 43 1001.6
20260507185004 14 271 3.2 3.2 0.00 0.00 0.00 44 1001.5
20260507184502 15 255 3.2 3.2 0.00 0.00 0.00 43 1001.7
20260507184000 15 312 1.6 6.4 0.00 0.00 0.00 42 1001.7
20260507183456 15 261 4.8 4.8 0.00 0.00 0.00 42 1001.6
20260507182953 15 68 3.2 4.8 0.00 0.00 0.00 40 1001.7
20260507182449 15 255 1.6 9.7 0.00 0.00 0.00 41 1001.5
20260507181945 15 298 1.6 4.8 0.00 0.00 0.00 42 1001.5
20260507181442 15 264 1.6 6.4 0.00 0.00 0.00 42 1001.7
20260507180938 15 246 4.8 6.4 0.00 0.00 0.00 45 1001.7
20260507180435 13 61 0.0 3.2 0.00 0.00 0.00 47 1001.6
20260507175931 13 347 3.2 4.8 0.00 0.00 0.00 43 1001.8
20260507175428 15 252 3.2 4.8 0.00 0.00 0.00 44 1002.1
20260507174926 15 291 3.2 4.8 0.00 0.00 0.00 46 1002.0
20260507174423 15 278 1.6 4.8 0.00 0.00 0.00 42 1002.4
20260507173920 15 309 1.6 3.2 0.00 0.00 0.00 42 1002.1
20260507173417 15 197 1.6 4.8 0.00 0.00 0.00 45 1002.1
20260507172914 14 184 4.8 9.7 0.00 0.00 0.00 41 1002.1
20260507172410 13 178 3.2 3.2 0.00 0.00 0.00 43 1002.1
20260507171906 13 303 3.2 3.2 0.00 0.00 0.00 46 1002.2
20260507171403 13 266 4.8 4.8 0.00 0.00 0.00 46 1002.5
20260507170900 14 251 3.2 4.8 0.00 0.00 0.00 44 1002.2
20260507170357 14 20 3.2 4.8 0.00 0.00 0.00 41 1002.4
20260507165853 13 305 1.6 4.8 0.00 0.00 0.00 44 1002.7
20260507165349 12 239 3.2 3.2 0.00 0.00 0.00 46 1002.6
20260507164845 12 277 3.2 4.8 0.00 0.00 0.00 46 1002.7
20260507164342 13 173 4.8 4.8 0.00 0.00 0.00 46 1002.9
20260507163839 13 222 1.6 3.2 0.00 0.00 0.00 45 1002.9
20260507163337 14 282 3.2 4.8 0.00 0.00 0.00 49 1002.9
20260507162833 13 278 3.2 3.2 0.00 0.00 0.00 47 1002.8
20260507162329 13 354 1.6 3.2 0.00 0.00 0.00 44 1003.0
20260507161826 13 266 3.2 4.8 0.00 0.00 0.00 46 1003.1
20260507161322 13 251 1.6 4.8 0.00 0.00 0.00 46 1003.0
20260507160819 12 255 3.2 4.8 0.00 0.00 0.00 47 1003.0
20260507160315 13 346 0.0 3.2 0.00 0.00 0.00 44 1003.0
20260507155811 12 330 6.4 9.7 0.00 0.00 0.00 49 1003.2
20260507155307 11 31 0.0 3.2 0.00 0.00 0.00 46 1003.2
20260507154804 12 27 3.2 4.8 0.00 0.00 0.00 47 1003.1
20260507154301 12 61 1.6 3.2 0.00 0.00 0.00 48 1003.2
20260507153758 12 283 1.6 4.8 0.00 0.00 0.00 45 1003.2
20260507153254 12 263 1.6 1.6 0.00 0.00 0.00 48 1003.3
20260507152751 12 5 0.0 4.8 0.00 0.00 0.00 46 1003.3
20260507152247 13 165 0.0 3.2 0.00 0.00 0.00 46 1003.3
20260507151743 12 169 3.2 3.2 0.00 0.00 0.00 48 1003.3
20260507151240 13 264 4.8 4.8 0.00 0.00 0.00 50 1003.5
20260507150737 12 103 1.6 3.2 0.00 0.00 0.00 43 1003.6
20260507150234 12 6 3.2 4.8 0.00 0.00 0.00 46 1003.5
20260507145730 12 333 1.6 3.2 0.00 0.00 0.00 44 1003.6
20260507145226 12 313 0.0 3.2 0.00 0.00 0.00 47 1003.8
20260507144723 11 250 3.2 4.8 0.00 0.00 0.00 49 1003.8
20260507144221 11 262 3.2 3.2 0.00 0.00 0.00 50 1003.8
20260507143717 11 7 3.2 4.8 0.00 0.00 0.00 47 1004.1
20260507143215 11 147 1.6 3.2 0.00 0.00 0.00 53 1004.1
20260507142710 10 332 3.2 4.8 0.00 0.00 0.00 51 1004.0
20260507142207 10 28 1.6 4.8 0.00 0.00 0.00 51 1004.0
20260507141703 10 318 1.6 3.2 0.00 0.00 0.00 55 1004.3
20260507141200 10 271 3.2 3.2 0.00 0.00 0.00 57 1004.4
20260507140657 10 68 1.6 4.8 0.00 0.00 0.00 52 1004.3
20260507140154 10 272 1.6 3.2 0.00 0.00 0.00 55 1004.4
20260507135651 10 167 0.0 0.0 0.00 0.00 0.00 55 1004.6
20260507135148 10 174 0.0 3.2 0.00 0.00 0.00 58 1004.6
20260507134644 9 263 1.6 1.6 0.00 0.00 0.00 60 1004.7
20260507134141 9 346 1.6 3.2 0.00 0.00 0.00 57 1004.7
20260507133637 9 5 1.6 3.2 0.00 0.00 0.00 61 1004.8
20260507133135 8 182 1.6 3.2 0.00 0.00 0.00 61 1004.6
20260507132632 8 327 0.0 0.0 0.00 0.00 0.00 61 1004.6
20260507132127 8 284 0.0 0.0 0.00 0.00 0.00 64 1004.5
20260507131624 8 254 0.0 0.0 0.00 0.00 0.00 62 1004.5
20260507131122 8 358 0.0 0.0 0.00 0.00 0.00 65 1004.5
20260507130619 8 163 0.0 0.0 0.00 0.00 0.00 64 1004.5
20260507130117 8 122 0.0 0.0 0.00 0.00 0.00 66 1004.5
20260507125615 7 43 0.0 0.0 0.00 0.00 0.00 66 1004.8
20260507125112 7 145 0.0 0.0 0.00 0.00 0.00 64 1004.6
20260507124608 7 49 0.0 0.0 0.00 0.00 0.00 66 1004.8
20260507124107 7 28 0.0 0.0 0.00 0.00 0.00 65 1004.7
20260507123604 7 262 0.0 0.0 0.00 0.00 0.00 72 1004.6
20260507123101 6 285 0.0 0.0 0.00 0.00 0.00 71 1004.8
20260507122556 6 285 0.0 0.0 0.00 0.00 0.00 82 1004.7
20260507122052 6 285 0.0 0.0 0.00 0.00 0.00 85 1005.0
20260507121548 6 285 0.0 0.0 0.00 0.00 0.00 87 1004.6
20260507121044 5 64 0.0 0.0 0.00 0.00 0.00 91 1004.8
20260507120540 5 64 0.0 0.0 0.00 0.00 0.00 92 1004.5
20260507120037 5 64 0.0 0.0 0.00 0.00 0.00 92 1004.8
20260507115534 4 64 0.0 0.0 0.00 0.00 0.00 92 1004.5
20260507115030 4 64 0.0 0.0 0.00 0.00 0.00 92 1004.5
20260507114526 3 64 0.0 0.0 0.00 0.00 0.00 93 1004.8
20260507114023 3 64 0.0 0.0 0.00 0.00 0.00 93 1004.8
20260507113520 3 64 0.0 0.0 0.00 0.00 0.00 93 1004.6
20260507113017 3 64 0.0 0.0 0.00 0.00 0.00 93 1004.5
20260507112515 3 64 0.0 0.0 0.00 0.00 0.00 93 1004.4
20260507112012 2 64 0.0 0.0 0.00 0.00 0.00 93 1004.2
20260507111510 2 64 0.0 0.0 0.00 0.00 0.00 93 1004.3
20260507111005 2 64 0.0 0.0 0.00 0.00 0.00 93 1004.3
20260507110501 2 57 0.0 0.0 0.00 0.00 0.00 93 1004.2
20260507105958 2 57 0.0 0.0 0.00 0.00 0.00 93 1004.3
20260507105455 2 57 0.0 0.0 0.00 0.00 0.00 93 1004.1
20260507104951 2 56 0.0 0.0 0.00 0.00 0.00 92 1004.1
20260507104449 2 56 0.0 0.0 0.00 0.00 0.00 92 1004.1
20260507103944 2 56 0.0 0.0 0.00 0.00 0.00 92 1004.0
20260507103441 2 56 0.0 0.0 0.00 0.00 0.00 92 1004.1
20260507102937 2 56 0.0 0.0 0.00 0.00 0.00 92 1003.9
20260507102434 2 42 0.0 0.0 0.00 0.00 0.00 92 1003.8
20260507101931 2 266 0.0 0.0 0.00 0.00 0.00 92 1003.9
20260507101426 2 266 0.0 0.0 0.00 0.00 0.00 92 1003.9
20260507100922 3 266 0.0 0.0 0.00 0.00 0.00 91 1003.7
20260507100420 3 266 0.0 0.0 0.00 0.00 0.00 91 1003.8
20260507095918 3 266 0.0 0.0 0.00 0.00 0.00 91 1003.8
20260507095415 3 266 0.0 0.0 0.00 0.00 0.00 90 1003.7
20260507094912 3 266 0.0 0.0 0.00 0.00 0.00 90 1003.8
20260507094408 3 266 0.0 0.0 0.00 0.00 0.00 90 1003.7
20260507093905 3 266 0.0 0.0 0.00 0.00 0.00 89 1003.7
20260507093403 3 266 0.0 0.0 0.00 0.00 0.00 89 1003.9
20260507092901 3 266 0.0 0.0 0.00 0.00 0.00 89 1003.7
20260507092357 3 266 0.0 0.0 0.00 0.00 0.00 89 1003.8
20260507091854 4 266 0.0 0.0 0.00 0.00 0.00 88 1003.9
20260507091350 4 266 0.0 0.0 0.00 0.00 0.00 88 1004.1
20260507090846 4 266 0.0 0.0 0.00 0.00 0.00 86 1003.9
20260507090342 4 266 0.0 0.0 0.00 0.00 0.00 86 1003.9
20260507085840 5 266 0.0 0.0 0.00 0.00 0.00 85 1003.8
20260507085336 5 266 0.0 0.0 0.00 0.00 0.00 85 1003.7
20260507084834 5 266 0.0 0.0 0.00 0.00 0.00 84 1003.8
20260507084330 5 266 0.0 0.0 0.00 0.00 0.00 83 1003.9
20260507083828 5 266 0.0 0.0 0.00 0.00 0.00 81 1003.8
20260507083324 5 266 0.0 0.0 0.00 0.00 0.00 80 1003.8
20260507082820 6 266 0.0 0.0 0.00 0.00 0.00 78 1003.8
20260507082316 6 266 0.0 0.0 0.00 0.00 0.00 76 1003.8
20260507081814 6 266 0.0 0.0 0.00 0.00 0.00 76 1003.7
20260507081309 6 266 0.0 0.0 0.00 0.00 0.00 77 1003.6
20260507080806 6 266 0.0 0.0 0.00 0.00 0.00 76 1003.5
20260507080302 6 266 0.0 0.0 0.00 0.00 0.00 76 1003.7
20260507075757 6 266 0.0 0.0 0.00 0.00 0.00 76 1003.8
20260507075254 6 266 0.0 0.0 0.00 0.00 0.00 76 1003.8
20260507074750 6 266 0.0 0.0 0.00 0.00 0.00 75 1003.9
20260507074249 6 266 0.0 0.0 0.00 0.00 0.00 75 1003.9
20260507073745 7 266 0.0 0.0 0.00 0.00 0.00 76 1003.8
20260507073241 7 266 0.0 0.0 0.00 0.00 0.00 76 1003.9
20260507072739 7 266 0.0 0.0 0.00 0.00 0.00 75 1003.7
20260507072237 7 266 0.0 0.0 0.00 0.00 0.00 74 1003.8
20260507071734 7 266 0.0 0.0 0.00 0.00 0.00 77 1003.6
20260507071230 7 266 0.0 0.0 0.00 0.00 0.00 77 1003.6
20260507070727 7 266 0.0 0.0 0.00 0.00 0.00 75 1003.6
20260507070224 7 266 0.0 0.0 0.00 0.00 0.00 76 1003.9
20260507065721 7 266 0.0 0.0 0.00 0.00 0.00 77 1003.9
20260507065218 7 266 0.0 0.0 0.00 0.00 0.00 77 1003.9
20260507064715 7 266 0.0 0.0 0.00 0.00 0.00 76 1003.7
20260507064214 7 266 0.0 0.0 0.00 0.00 0.00 76 1004.0
20260507063711 7 266 0.0 0.0 0.00 0.00 0.00 78 1003.9
20260507063207 7 266 0.0 0.0 0.00 0.00 0.00 76 1003.8
20260507062704 7 266 0.0 0.0 0.00 0.00 0.00 74 1004.0
20260507062202 7 266 0.0 0.0 0.00 0.00 0.00 75 1004.0
20260507061700 7 266 0.0 0.0 0.00 0.00 0.00 76 1004.1
20260507061157 7 266 0.0 0.0 0.00 0.00 0.00 77 1004.2
20260507060655 7 266 0.0 0.0 0.00 0.00 0.00 77 1004.4
20260507060151 7 266 0.0 0.0 0.00 0.00 0.00 77 1004.1
20260507055647 7 266 0.0 0.0 0.00 0.00 0.00 80 1004.2
20260507055143 7 266 0.0 0.0 0.00 0.00 0.00 79 1004.3
20260507054639 7 266 0.0 0.0 0.00 0.00 0.00 79 1004.2
20260507054136 7 266 0.0 0.0 0.00 0.00 0.00 77 1004.4
20260507053634 7 266 0.0 0.0 0.00 0.00 0.00 77 1004.5
20260507053132 7 266 0.0 0.0 0.00 0.00 0.00 76 1004.5
20260507052630 7 266 0.0 0.0 0.00 0.00 0.00 77 1004.4
20260507052126 7 266 0.0 0.0 0.00 0.00 0.00 77 1004.2
20260507051624 7 266 0.0 0.0 0.00 0.00 0.00 77 1004.4
20260507051121 7 266 0.0 0.0 0.00 0.00 0.00 75 1004.5
20260507050618 7 266 0.0 0.0 0.00 0.00 0.00 76 1004.7
20260507050114 7 266 0.0 0.0 0.00 0.00 0.00 77 1004.6
20260507045611 7 266 0.0 0.0 0.00 0.00 0.00 80 1004.3
20260507045108 8 266 0.0 0.0 0.00 0.00 0.00 80 1004.5
20260507044604 8 266 0.0 0.0 0.00 0.00 0.00 79 1004.5
20260507044102 8 266 0.0 0.0 0.00 0.00 0.00 79 1004.6
20260507043557 8 266 0.0 0.0 0.00 0.00 0.00 79 1004.4
20260507043055 8 266 0.0 0.0 0.00 0.00 0.00 78 1004.4
20260507042550 8 266 0.0 0.0 0.00 0.00 0.00 77 1004.3
20260507042046 8 266 0.0 0.0 0.00 0.00 0.00 77 1004.5
20260507041543 8 266 0.0 0.0 0.00 0.00 0.00 78 1004.5
20260507041040 8 266 0.0 0.0 0.00 0.00 0.00 77 1004.4
20260507040537 8 266 0.0 0.0 0.00 0.00 0.00 81 1004.2
20260507040032 8 266 0.0 0.0 0.00 0.00 0.00 81 1004.4
20260507035529 8 266 0.0 0.0 0.00 0.48 0.48 79 1004.8
20260507035026 8 266 0.0 0.0 0.00 0.48 0.48 80 1004.4
20260507034522 8 266 0.0 0.0 0.00 0.48 0.48 79 1004.4
20260507034020 8 266 0.0 0.0 0.00 0.48 0.48 78 1004.5
20260507033518 8 266 0.0 0.0 0.00 0.48 0.48 78 1004.7
20260507033015 8 266 0.0 0.0 0.00 0.48 0.48 78 1004.5
20260507032512 8 266 0.0 0.0 0.00 0.48 0.48 77 1004.0
20260507032008 8 266 0.0 0.0 0.00 0.48 0.48 78 1003.9
20260507031504 8 266 0.0 0.0 0.00 0.48 0.48 78 1004.1
20260507031001 8 266 0.0 0.0 0.00 0.48 0.48 79 1003.9
20260507030458 8 266 0.0 0.0 0.00 0.48 0.48 80 1003.9
20260507025955 8 266 0.0 0.0 0.00 0.48 0.48 81 1003.8
20260507025453 8 266 0.0 0.0 0.00 0.48 0.48 83 1004.1
20260507024951 9 266 0.0 0.0 0.00 0.48 0.48 83 1003.8
20260507024448 9 266 0.0 0.0 0.00 0.48 0.48 81 1004.1
20260507023943 9 266 0.0 0.0 0.00 0.48 0.48 80 1004.2
20260507023440 9 276 0.0 0.0 0.00 0.48 0.48 80 1004.1
20260507022937 9 276 0.0 0.0 0.00 0.48 0.48 80 1004.1
20260507022435 9 276 0.0 0.0 0.00 0.48 0.48 81 1003.9
20260507021930 9 276 0.0 0.0 0.00 0.48 0.48 78 1003.7
20260507021425 9 322 0.0 0.0 0.00 0.48 0.48 81 1003.7
20260507020924 9 32 0.0 0.0 0.00 0.48 0.48 81 1003.6
20260507020420 9 17 0.0 0.0 0.00 0.48 0.48 82 1003.4
20260507015917 9 353 0.0 0.0 0.00 0.48 0.48 82 1003.1
20260507015415 9 300 0.0 0.0 0.00 0.48 0.48 84 1003.2
20260507014912 9 337 0.0 0.0 0.00 0.48 0.48 86 1003.1
20260507014408 9 51 0.0 0.0 0.00 0.48 0.48 86 1003.4
20260507013904 9 149 1.6 3.2 0.00 0.48 0.48 87 1003.1
20260507013402 9 43 0.0 0.0 0.00 0.48 0.48 87 1003.2
20260507012859 9 42 0.0 0.0 0.00 0.48 0.48 87 1003.3
20260507012355 10 42 0.0 0.0 0.00 0.48 0.48 87 1003.2
20260507011853 10 101 0.0 0.0 0.00 0.48 0.48 87 1003.3
20260507011350 10 43 0.0 0.0 0.00 0.48 0.48 87 1003.2
20260507010849 10 32 0.0 0.0 0.00 0.48 0.48 86 1003.3
20260507010345 10 49 0.0 0.0 0.00 0.48 0.48 86 1003.4
20260507005842 10 11 0.0 0.0 0.00 0.48 0.48 87 1003.5
20260507005339 10 10 0.0 0.0 0.00 0.48 0.48 86 1003.6
20260507004836 10 9 0.0 0.0 0.00 0.48 0.48 87 1003.4
20260507004333 10 9 0.0 0.0 0.00 0.48 0.48 86 1003.4
20260507003830 10 9 0.0 0.0 0.00 0.48 0.48 86 1003.6
20260507003326 10 349 0.0 0.0 0.00 0.48 0.48 85 1003.9
20260507002820 10 348 0.0 0.0 0.00 0.48 0.48 86 1003.9
20260507002317 10 348 0.0 0.0 0.00 0.48 0.48 87 1004.1
20260507001815 10 348 0.0 0.0 0.00 0.48 0.48 87 1003.8
20260507001311 10 354 0.0 0.0 0.00 0.48 0.48 85 1003.6
20260507000808 10 9 0.0 0.0 0.00 0.48 0.48 86 1003.2
20260507000306 10 346 0.0 0.0 0.00 0.48 0.48 85 1003.3
20260506235800 10 346 0.0 0.0 0.00 0.48 0.48 85 1003.5
20260506235256 10 346 0.0 0.0 0.00 0.48 0.48 86 1003.4
20260506234753 10 318 0.0 0.0 0.00 0.48 0.48 87 1003.5
20260506234250 10 319 0.0 0.0 0.00 0.48 0.48 86 1003.4
20260506233748 10 318 0.0 0.0 0.00 0.48 0.48 84 1003.3
20260506233244 10 308 0.0 0.0 0.00 0.48 0.48 84 1003.0
20260506232741 10 254 0.0 0.0 0.00 0.48 0.48 84 1002.9
20260506232235 10 318 0.0 0.0 0.00 0.48 0.48 85 1003.1
20260506231733 10 318 0.0 0.0 0.00 0.48 0.48 85 1003.2
20260506231231 10 323 0.0 0.0 0.00 0.48 0.48 84 1003.0
20260506230728 10 323 0.0 0.0 0.00 0.48 0.48 85 1002.8
20260506230225 10 323 0.0 0.0 0.00 0.48 0.48 85 1002.8
20260506225721 10 307 0.0 0.0 0.00 0.48 0.48 83 1002.7
20260506225218 10 190 0.0 0.0 0.00 0.48 0.48 82 1002.5
20260506224715 10 334 0.0 0.0 0.00 0.48 0.48 83 1002.5
20260506224212 10 323 0.0 0.0 0.00 0.48 0.48 84 1002.5
20260506223708 10 313 0.0 0.0 0.00 0.48 0.48 84 1002.6
20260506223204 10 326 0.0 0.0 0.00 0.48 0.48 84 1002.8
20260506222701 10 295 0.0 0.0 0.00 0.48 0.48 85 1002.6
20260506222156 10 284 0.0 0.0 0.00 0.48 0.48 84 1002.6
20260506221655 10 320 0.0 0.0 0.00 0.48 0.48 84 1002.4
20260506221153 10 338 0.0 0.0 0.00 0.48 0.48 85 1002.6
20260506220649 10 315 0.0 1.6 0.00 0.48 0.48 85 1002.8
20260506220144 10 346 0.0 1.6 0.00 0.48 0.48 84 1002.6
20260506215641 10 308 0.0 0.0 0.00 0.48 0.48 84 1002.4
20260506215136 10 275 0.0 0.0 0.00 0.48 0.48 85 1002.5
20260506214634 10 290 0.0 0.0 0.00 0.48 0.48 85 1002.4
20260506214131 10 282 0.0 0.0 0.00 0.48 0.48 87 1002.1
20260506213629 10 176 1.6 3.2 0.00 0.48 0.48 86 1001.9
20260506213126 10 337 1.6 1.6 0.00 0.48 0.48 87 1001.8
20260506212624 10 280 1.6 3.2 0.00 0.48 0.48 86 1001.9
20260506212118 10 280 1.6 3.2 0.00 0.48 0.48 87 1001.9
20260506211614 11 315 0.0 0.0 0.00 0.48 0.48 87 1001.7
20260506211111 11 300 0.0 0.0 0.00 0.48 0.48 87 1001.6
20260506210608 11 302 0.0 1.6 0.00 0.48 0.48 88 1001.5
20260506210104 11 18 0.0 0.0 0.00 0.48 0.48 90 1001.4
20260506205601 11 325 0.0 0.0 0.00 0.48 0.48 91 1001.4
20260506205056 11 356 0.0 0.0 0.00 0.48 0.48 92 1001.4
20260506204555 10 329 0.0 0.0 0.00 0.48 0.48 92 1001.2
20260506204051 10 308 0.0 0.0 0.00 0.48 0.48 92 1001.2
20260506203550 10 325 0.0 0.0 0.00 0.48 0.48 92 1001.3
20260506203046 10 95 0.0 1.6 0.00 0.48 0.48 92 1001.2
20260506202543 10 358 1.6 1.6 0.00 0.48 0.48 92 1001.0
20260506202040 10 252 0.0 0.0 0.00 0.48 0.48 92 1001.1
20260506201538 10 252 0.0 0.0 0.00 0.48 0.48 92 1001.1
20260506201034 10 252 0.0 0.0 0.00 0.48 0.48 92 1001.1
20260506200530 10 279 0.0 0.0 0.00 0.48 0.48 92 1001.3
20260506200027 10 309 0.0 0.0 0.00 0.48 0.48 92 1001.3
20260506195524 10 315 0.0 0.0 0.00 0.48 0.48 92 1001.4
20260506195020 10 272 0.0 0.0 0.00 0.48 0.48 92 1001.4
20260506194518 10 284 0.0 0.0 0.00 0.48 0.48 92 1001.4
20260506194014 10 284 0.0 0.0 0.00 0.48 0.48 93 1001.2
20260506193511 10 318 0.0 0.0 0.00 0.48 0.48 92 1001.3
20260506193008 10 270 0.0 0.0 0.00 0.48 0.48 93 1001.1
20260506192505 10 354 0.0 1.6 0.00 0.48 0.48 92 1001.3
20260506192001 10 338 0.0 0.0 0.00 0.48 0.48 93 1001.1
20260506191458 10 291 1.6 3.2 0.00 0.48 0.48 93 1001.2
20260506190954 10 137 0.0 1.6 0.00 0.48 0.48 93 1001.3
20260506190451 10 275 1.6 1.6 0.00 0.48 0.48 94 1001.3
20260506185948 10 309 0.0 3.2 0.00 0.48 0.48 94 1001.2